Weather History for Burnet, TX

Change the Weather History Date:

Saturday, May 18, 2013

  Actual Average Record
Temperature  
Mean Temperature 82 °F -  
Max Temperature 93 °F 82 °F 93 °F (2003)
Min Temperature 70 °F 62 °F 55 °F (2008)
Cooling Degree Days 16    
Growing Degree Days 32 (Base 50)    
Moisture  
Dew Point 66 °F    
Average Humidity 67    
Maximum Humidity 90    
Minimum Humidity 39    
Precipitation  
Precipitation 0.00 in - - ()
Sea Level Pressure  
Sea Level Pressure 29.85 in    
Wind  
Wind Speed 12 mph (South)    
Max Wind Speed 18 mph    
Max Gust Speed 32 mph    
Visibility 6 miles    
Events      
Averages and records for this station are not official NWS values.
T = Trace of Precipitation, MM = Missing Value Source: NWS Daily Summary

Daily Weather History Graph

Daily Weather History Graph

Search for Another Location

Airport:

Trip Planner

Search our weather history database for the weather conditions in past years. The results will help you decide how hot, cold, wet, or windy it might be!

Date:

Astronomy

May. 18, 2013 Rise Set
Actual Time 6:36 AM CDT 8:22 PM CDT
Civil Twilight 6:09 AM CDT 8:49 PM CDT
Nautical Twilight 5:37 AM CDT 9:21 PM CDT
Astronomical Twilight 5:03 AM CDT 9:55 PM CDT
Moon 1:54 PM CDT (5/18) 2:00 AM CDT (5/18)
Length of Visible Light 14h 40m
Length of Day
13h 46m
First Quarter, 55% of the Moon is Illuminated
May 18
First Quarter
May 24
Full
May 31
Last Quarter
Jun 8
New
Jun 16
First Quarter

Hourly Weather History & Observations

Time (CDT) Temp. Heat Index Dew Point Humidity Pressure Visibility Wind Dir Wind Speed Gust Speed Precip Events Conditions
12:53 AM 75.9 °F - 69.1 °F 79% 29.85 in 5.0 mi South 9.2 mph 17.3 mph N/A   Haze
1:53 AM 75.0 °F - 66.9 °F 76% 29.84 in 6.0 mi South 12.7 mph - N/A   Haze
2:53 AM 73.0 °F - 66.0 °F 79% 29.83 in 7.0 mi South 10.4 mph - N/A   Clear
3:53 AM 72.0 °F - 66.0 °F 81% 29.83 in 7.0 mi South 9.2 mph - N/A   Clear
4:53 AM 72.0 °F - 66.0 °F 81% 29.83 in 6.0 mi SSE 8.1 mph - N/A   Haze
5:53 AM 72.0 °F - 66.9 °F 84% 29.85 in 6.0 mi South 8.1 mph - N/A   Haze
6:53 AM 70.0 °F - 66.9 °F 90% 29.87 in 4.0 mi South 10.4 mph 16.1 mph N/A   Clear
7:20 AM 71.1 °F - 66.9 °F 87% 29.93 in 4.0 mi South 11.5 mph - N/A   Partly Cloudy
7:51 AM 71.6 °F - 66.2 °F 83% 29.94 in 4.0 mi South 10.4 mph 18.4 mph N/A   Mostly Cloudy
7:53 AM 71.1 °F - 66.9 °F 87% 29.88 in 4.0 mi South 11.5 mph 18.4 mph N/A   Mostly Cloudy
8:09 AM 71.1 °F - 66.9 °F 87% 29.93 in 4.0 mi South 11.5 mph 18.4 mph N/A   Mostly Cloudy
8:27 AM 72.0 °F - 66.9 °F 84% 29.93 in 4.0 mi South 12.7 mph 19.6 mph N/A   Haze
8:53 AM 73.0 °F - 66.9 °F 81% 29.88 in 4.0 mi South 9.2 mph - N/A   Haze
9:53 AM 77.0 °F - 66.9 °F 71% 29.88 in 5.0 mi South 13.8 mph 20.7 mph N/A   Haze
10:53 AM 82.0 °F 84.5 °F 66.9 °F 60% 29.89 in 6.0 mi South 13.8 mph 19.6 mph N/A   Haze
11:53 AM 86.0 °F 88.2 °F 66.0 °F 51% 29.88 in 6.0 mi South 18.4 mph 29.9 mph N/A   Haze
12:53 PM 87.1 °F 89.2 °F 66.0 °F 49% 29.86 in 6.0 mi South 16.1 mph 23.0 mph N/A   Haze
2:53 PM 91.9 °F 94.1 °F 64.9 °F 41% 29.81 in 5.0 mi South 18.4 mph 32.2 mph N/A   Haze
3:53 PM 93.0 °F 95.0 °F 64.9 °F 39% 29.80 in 6.0 mi South 12.7 mph 25.3 mph N/A   Haze
5:53 PM 91.0 °F 93.0 °F 64.9 °F 42% 29.78 in 5.0 mi South 11.5 mph 29.9 mph N/A   Haze
6:53 PM 89.1 °F 90.3 °F 64.0 °F 43% 29.78 in 5.0 mi South 16.1 mph 25.3 mph N/A   Haze
7:53 PM 86.0 °F 86.1 °F 61.0 °F 43% 29.76 in 8.0 mi SSE 16.1 mph 29.9 mph N/A   Clear
9:53 PM 80.1 °F 81.2 °F 62.1 °F 54% 29.78 in 10.0 mi SSE 15.0 mph 27.6 mph N/A   Clear
10:53 PM 79.0 °F - 61.0 °F 54% 29.80 in 10.0 mi South 13.8 mph 26.5 mph N/A   Clear
11:53 PM 77.0 °F - 62.1 °F 60% 29.81 in 10.0 mi South 16.1 mph 25.3 mph N/A   Clear